Location: Star Dogged Moon Observatory
(29.7756°N, 82.0783°W)
Time: 07:34:18
(UTC-05:00)

Amateur Radio Satellites - All Passes

Search period start: 06 March 2015 07:04
Search period end: 07 March 2015 07:04
Location: Star Dogged Moon Observatory, 29.7756°N, 82.0783°W

Satellite Date Start Highest point End Downlink Frequencies (MHz)
Time Altitude Azimuth
RS-15 06 Mar 07:10:26 07:20:17 33° 49° (NE) 07:30:50 29.354- 29.394
STRAND 1 06 Mar 07:20:02 07:24:50 39° 261° (W) 07:29:38 437.568
CUBESAT XI-V 06 Mar 07:20:58 07:24:30 20° 266° (W) 07:27:54 437.345
SRMSAT 06 Mar 07:26:04 07:29:46 17° 196° (SSW) 07:33:22 437.500
Cubesat XI-IV 06 Mar 07:38:27 07:43:03 29° 289° (WNW) 07:47:30 437.490
CUTE-I 06 Mar 07:46:31 07:50:49 24° 290° (WNW) 07:54:58 437.470
CANX-2 06 Mar 08:03:40 08:04:11 10° 91° (E) 08:05:02 2200.000
ISS 06 Mar 08:05:38 08:07:56 18° 323° (NW) 08:10:10 145.825
AIST 1 06 Mar 08:15:19 08:16:52 11° 287° (WNW) 08:18:08
GOMX 1 06 Mar 08:17:10 08:19:33 15° 93° (E) 08:22:05 467.674
CUTE 1.7 + AOD 2 06 Mar 08:19:50 08:22:22 16° 93° (E) 08:25:07 437.475
BRITE-PL 06 Mar 08:31:05 08:35:06 38° 98° (E) 08:39:00 437.365/2234.400
DOVE 4 06 Mar 08:33:22 08:35:48 16° 93° (E) 08:38:24 437.250
O/OREOS (USA 219) 06 Mar 08:36:43 08:41:16 84° 106° (ESE) 08:45:51 437.305
AAUSAT CUBESAT 2 06 Mar 08:48:28 08:51:34 21° 95° (E) 08:54:48 437.432
GONETS M04 06 Mar 08:52:17 09:00:53 59° 81° (E) 09:09:33
COMPASS 1 06 Mar 08:53:46 08:57:24 28° 96° (E) 09:01:05 437.405
HO-68 06 Mar 09:04:17 09:11:25 64° 102° (ESE) 09:18:32 435.675
SO-50 06 Mar 09:09:57 09:12:26 14° 49° (NE) 09:15:09 436.795
Oscar 11 06 Mar 09:10:07 09:12:50 17° 94° (E) 09:15:45 145.826/435.025
RS-15 06 Mar 09:22:03 09:33:30 65° 247° (WSW) 09:45:21 29.354- 29.394
SEEDS 06 Mar 09:26:33 09:30:48 83° 284° (WNW) 09:35:03 437.485
DELFI C3 06 Mar 09:32:29 09:35:45 24° 96° (E) 09:39:07 145.870
CANX-2 06 Mar 09:36:19 09:40:24 45° 284° (WNW) 09:44:29 2200.000
DX 1 06 Mar 09:41:19 09:44:01 17° 94° (E) 09:46:54 434.975-435.025
CUBEBUG 2 06 Mar 09:42:37 09:46:15 29° 97° (E) 09:49:59 437.445
CINEMA 3 06 Mar 09:48:07 09:52:15 73° 100° (E) 09:56:26 145.822/145.860
UNISAT 6 06 Mar 09:48:10 09:51:50 27° 74° (ENE) 09:55:32 437.425
GOMX 1 06 Mar 09:54:11 09:57:50 28° 287° (WNW) 10:01:20 467.674
CUTE 1.7 + AOD 2 06 Mar 09:54:37 09:58:22 30° 286° (WNW) 10:02:04 437.475
POPSAT HIP 1 06 Mar 10:00:38 10:03:39 19° 72° (ENE) 10:06:47 437.405
POLYITAN 1 06 Mar 10:02:04 10:05:11 21° 72° (ENE) 10:08:26 437.675
FUNcube-1 06 Mar 10:02:05 10:05:50 33° 98° (E) 10:09:40 145.935
AISAT 06 Mar 10:04:08 10:05:24 11° 92° (E) 10:06:59 437.250
ZACube-1 06 Mar 10:04:45 10:08:36 36° 98° (E) 10:12:31 437.345
UKube-1 06 Mar 10:04:49 10:08:39 31° 98° (E) 10:12:31 .
DOVE 4 06 Mar 10:10:07 10:13:41 27° 286° (WNW) 10:17:09 437.250
TIGRISAT 06 Mar 10:10:39 10:14:54 50° 76° (ENE) 10:19:06 435.000
VELOX 1 06 Mar 10:10:56 10:13:05 14° 93° (E) 10:15:29 145.980
BRITE-PL 06 Mar 10:11:35 10:13:19 12° 291° (WNW) 10:14:47 437.365/2234.400
NANOSAT C BR1 06 Mar 10:21:17 10:25:08 34° 74° (ENE) 10:29:03 145.865
AAUSAT CUBESAT 2 06 Mar 10:23:49 10:27:10 23° 287° (WNW) 10:30:25 437.432
ANTELSAT 06 Mar 10:26:20 10:30:45 84° 78° (ENE) 10:35:05 437.575/2403.000
50 SAT 06 Mar 10:27:36 10:30:36 21° 96° (E) 10:33:42 437.505
DANDE 06 Mar 10:29:32 10:29:55 10° 77° (ENE) 10:30:27 436.750
COMPASS 1 06 Mar 10:30:08 10:32:56 17° 288° (WNW) 10:35:34 437.405
UWE-3 06 Mar 10:32:43 10:36:52 73° 283° (WNW) 10:41:05 435.000/436.395/437.385
CUSAT 1 06 Mar 10:33:57 10:36:03 20° 80° (E) 10:38:28 437.405
ESTCUBE 1 06 Mar 10:41:20 10:43:49 15° 93° (E) 10:46:33 437.505/2401.250
BUGSAT 1 06 Mar 10:44:10 10:48:16 48° 75° (ENE) 10:52:25 437.445
Oscar 11 06 Mar 10:45:18 10:49:06 29° 286° (WNW) 10:52:49 145.826/435.025
SO-50 06 Mar 10:48:35 10:53:27 60° 245° (WSW) 10:58:15 436.795
GONETS M04 06 Mar 10:50:37 10:57:13 23° 274° (W) 11:03:25
HO-68 06 Mar 10:53:38 10:58:38 20° 295° (WNW) 11:03:18 435.675
QB50P1 06 Mar 10:54:45 10:59:02 85° 258° (WSW) 11:03:20 145.935-145.965
QB50P2 06 Mar 11:00:05 11:04:21 71° 259° (WSW) 11:08:37 145.880/145.840
DELFI C3 06 Mar 11:07:54 11:10:50 19° 288° (WNW) 11:13:39 145.870
DUCHIFAT 1 06 Mar 11:11:38 11:15:49 51° 260° (W) 11:19:59 145.980
HUMSAT D 06 Mar 11:12:04 11:16:08 60° 283° (WNW) 11:20:13 437.325/437.525
DX 1 06 Mar 11:16:32 11:20:21 30° 287° (WNW) 11:24:06 434.975-435.025
CUBEBUG 2 06 Mar 11:20:13 11:22:47 16° 288° (WNW) 11:25:11 437.445
UNISAT 6 06 Mar 11:25:29 11:28:39 19° 265° (W) 11:31:37 437.425
CUBEBUG 1 06 Mar 11:27:27 11:31:42 49° 99° (E) 11:35:56 437.445
POPSAT HIP 1 06 Mar 11:35:47 11:39:25 25° 264° (W) 11:42:56 437.405
POLYITAN 1 06 Mar 11:37:29 11:41:00 24° 264° (W) 11:44:27 437.675
AISAT 06 Mar 11:38:05 11:42:18 44° 286° (WNW) 11:46:29 437.250
FUNcube-1 06 Mar 11:39:39 11:41:58 14° 289° (WNW) 11:44:05 145.935
UKube-1 06 Mar 11:41:47 11:44:36 16° 289° (WNW) 11:47:13 .
ZACube-1 06 Mar 11:42:43 11:44:43 13° 289° (WNW) 11:46:31 437.345
SPROUT 06 Mar 11:44:52 11:47:29 16° 94° (E) 11:50:15 437.525
VELOX 1 06 Mar 11:45:45 11:49:51 37° 286° (WNW) 11:53:53 145.980
NANOSAT C BR1 06 Mar 11:58:48 12:01:09 14° 267° (W) 12:03:16 145.865
50 SAT 06 Mar 12:02:36 12:05:30 19° 287° (WNW) 12:08:19 437.505
ESTCUBE 1 06 Mar 12:16:41 12:20:52 36° 286° (WNW) 12:24:59 437.505/2401.250
SWISSCUBE 06 Mar 13:04:39 13:07:59 19° 94° (E) 13:11:30 437.505
CUBEBUG 1 06 Mar 13:06:32 13:07:42 11° 291° (WNW) 13:08:34 437.445
Oscar 19 06 Mar 13:06:43 13:11:47 64° 76° (ENE) 13:16:52 437.125/150
TISAT 1 06 Mar 13:08:44 13:12:45 44° 285° (WNW) 13:16:44 437.305
BEESAT 06 Mar 13:12:17 13:15:52 22° 95° (E) 13:19:36 436.000
Gurwin Techsat 1B 06 Mar 13:12:51 13:15:50 16° 69° (ENE) 13:19:06 435.225
ITAMSAT 1 06 Mar 13:15:24 13:19:23 23° 70° (ENE) 13:23:32 435.822/435.867
SPROUT 06 Mar 13:19:54 13:23:39 29° 286° (WNW) 13:27:19 437.525
ITUPSAT 1 06 Mar 13:41:30 13:46:08 46° 100° (E) 13:50:45 437.325
VERMONT LUNAR 06 Mar 14:31:22 14:34:32 35° 145° (SE) 14:37:47 437.305
ISS 06 Mar 14:37:04 14:39:47 25° 40° (NE) 14:42:32 145.825
SWISSCUBE 06 Mar 14:41:38 14:45:56 32° 287° (WNW) 14:50:07 437.505
BEESAT 06 Mar 14:49:35 14:53:44 29° 288° (WNW) 14:57:47 436.000
HORYU 2 06 Mar 14:49:54 14:53:56 36° 74° (ENE) 14:58:01 437.375
Gurwin Techsat 1B 06 Mar 14:50:21 14:55:28 49° 260° (W) 15:00:37 435.225
Oscar 19 06 Mar 14:50:51 14:51:38 10° 269° (W) 14:51:59 437.125/150
ITAMSAT 1 06 Mar 14:54:05 14:58:44 32° 263° (W) 15:03:20 435.822/435.867
PHONESAT 2.4 06 Mar 15:05:30 15:08:41 30° 143° (SE) 15:11:55 2401.200-2431.200
AO-7 06 Mar 15:08:43 15:16:29 46° 68° (ENE) 15:24:20 29.400- 29.500
ITUPSAT 1 06 Mar 15:21:05 15:23:41 14° 291° (WNW) 15:26:02 437.325
STARS 06 Mar 15:25:44 15:30:07 81° 102° (ESE) 15:34:29 437.465
BEESAT 3 06 Mar 15:27:55 15:31:22 28° 112° (ESE) 15:34:55 437.485
KKS-1 06 Mar 15:29:16 15:33:36 55° 285° (WNW) 15:37:55 437.445
YUBILEINY 06 Mar 15:36:08 15:44:28 54° 91° (E) 15:52:56 435.215
JAS-2 06 Mar 15:57:15 16:02:32 54° 73° (ENE) 16:08:28 435.910
BEESAT 2 06 Mar 15:57:39 16:01:39 56° 115° (ESE) 16:05:43 435.950
VERMONT LUNAR 06 Mar 16:09:15 16:12:26 33° 338° (NNW) 16:15:38 437.305
ISS 06 Mar 16:13:44 16:16:07 19° 232° (SW) 16:18:26 145.825
AIST 2 06 Mar 16:19:16 16:23:01 32° 112° (ESE) 16:26:52 435.215
HORYU 2 06 Mar 16:28:18 16:30:46 14° 267° (W) 16:33:00 437.375
AUBIESAT-1 06 Mar 16:31:33 16:35:28 29° 102° (ESE) 16:39:36 437.475
M-CUBED/EXP-1 PRIME 06 Mar 16:33:06 16:37:13 34° 103° (ESE) 16:41:33 437.505
PHONESAT 2.4 06 Mar 16:43:38 16:47:04 39° 336° (NNW) 16:50:31 2401.200-2431.200
AO-7 06 Mar 17:02:07 17:09:25 32° 262° (W) 17:16:30 29.400- 29.500
BEESAT 3 06 Mar 17:06:33 17:09:29 18° 306° (NW) 17:12:21 437.485
MOZHAYETS 4 06 Mar 17:11:04 17:15:44 83° 102° (ESE) 17:20:23
Cubesat XI-IV 06 Mar 17:14:57 17:19:12 25° 71° (ENE) 17:23:36 437.490
CUTE-I 06 Mar 17:22:19 17:26:51 30° 71° (ENE) 17:31:29 437.470
YUBILEINY 06 Mar 17:34:38 17:41:44 26° 288° (WNW) 17:48:34 435.215
BEESAT 2 06 Mar 17:39:23 17:40:15 10° 311° (NW) 17:40:52 435.950
JAS-2 06 Mar 17:45:21 17:48:20 14° 272° (W) 17:51:03 435.910
CUBESAT XI-V 06 Mar 17:47:58 17:49:21 11° 91° (E) 17:51:05 437.345
VERMONT LUNAR 06 Mar 17:48:56 17:50:59 15° 354° (N) 17:53:02 437.305
AIST 2 06 Mar 17:58:47 18:01:43 18° 307° (NW) 18:04:34 435.215
AUBIESAT-1 06 Mar 18:06:37 18:10:10 22° 291° (WNW) 18:13:43 437.475
M-CUBED/EXP-1 PRIME 06 Mar 18:08:40 18:11:56 19° 292° (WNW) 18:15:09 437.505
PRISM 06 Mar 18:16:40 18:20:05 24° 96° (E) 18:23:35 437.425
PHONESAT 2.4 06 Mar 18:23:46 18:26:08 16° 352° (N) 18:28:30 2401.200-2431.200
AIST 1 06 Mar 18:25:29 18:29:53 81° 265° (W) 18:34:14
PCSat 06 Mar 18:47:43 18:51:58 25° 108° (ESE) 18:56:22 145.827
O/OREOS (USA 219) 06 Mar 18:52:50 18:57:21 58° 69° (ENE) 19:01:50 437.305
Cubesat XI-IV 06 Mar 18:54:27 18:59:11 31° 263° (W) 19:03:52 437.490
CUTE-I 06 Mar 19:02:25 19:06:54 26° 264° (W) 19:11:17 437.470
GOMX 1 06 Mar 19:20:03 19:22:09 13° 70° (ENE) 19:24:32 467.674
CUBESAT XI-V 06 Mar 19:22:36 19:27:09 49° 285° (WNW) 19:31:38 437.345
VERMONT LUNAR 06 Mar 19:27:23 19:29:44 17° 11° (N) 19:32:07 437.305
HO-68 06 Mar 19:27:28 19:32:59 26° 67° (ENE) 19:38:43 435.675
DOVE 4 06 Mar 19:34:37 19:35:59 11° 70° (ENE) 19:37:41 437.250
BRITE-PL 06 Mar 19:34:58 19:39:46 31° 73° (ENE) 19:44:30 437.365/2234.400
STRAND 1 06 Mar 19:36:22 19:41:29 71° 285° (WNW) 19:46:35 437.568
PRISM 06 Mar 19:52:20 19:55:28 20° 288° (WNW) 19:58:27 437.425
GONETS M04 06 Mar 19:57:57 19:58:08 10° 82° (E) 19:59:18
PHONESAT 2.4 06 Mar 20:03:00 20:05:28 17° 10° (N) 20:07:58 2401.200-2431.200
SEEDS 06 Mar 20:13:15 20:16:52 30° 74° (ENE) 20:20:33 437.485
CANX-2 06 Mar 20:23:10 20:27:16 56° 77° (ENE) 20:31:24 2200.000
PCSat 06 Mar 20:30:23 20:35:15 33° 301° (WNW) 20:40:05 145.827
CUBEBUG 2 06 Mar 20:36:48 20:38:54 14° 71° (ENE) 20:41:14 437.445
CUTE 1.7 + AOD 2 06 Mar 20:40:59 20:45:11 87° 78° (ENE) 20:49:25 437.475
CINEMA 3 06 Mar 20:43:57 20:48:13 34° 75° (ENE) 20:52:23 145.822/145.860
FUNcube-1 06 Mar 20:53:56 20:55:57 14° 71° (ENE) 20:58:11 145.935
GOMX 1 06 Mar 20:54:35 20:59:55 61° 259° (W) 21:05:01 467.674
UKube-1 06 Mar 20:55:46 20:57:44 13° 70° (ENE) 20:59:56 .
ZACube-1 06 Mar 20:56:31 20:58:53 15° 72° (ENE) 21:01:25 437.345
VERMONT LUNAR 06 Mar 21:04:42 21:08:07 53° 27° (NNE) 21:11:31 437.305
AAUSAT CUBESAT 2 06 Mar 21:07:58 21:12:05 74° 258° (WSW) 21:16:14 437.432
DOVE 4 06 Mar 21:08:18 21:13:25 62° 259° (W) 21:18:17 437.250
BRITE-PL 06 Mar 21:13:24 21:18:13 28° 264° (W) 21:22:47 437.365/2234.400
HO-68 06 Mar 21:13:32 21:20:24 48° 260° (W) 21:27:15 435.675
COMPASS 1 06 Mar 21:14:17 21:18:20 51° 261° (W) 21:22:23 437.405
UWE-3 06 Mar 21:24:02 21:28:12 41° 75° (ENE) 21:32:17 435.000/436.395/437.385
RS-15 06 Mar 21:27:24 21:36:36 34° 108° (ESE) 21:46:06 29.354- 29.394
Oscar 11 06 Mar 21:33:26 21:37:44 83° 259° (W) 21:42:03 145.826/435.025
PHONESAT 2.4 06 Mar 21:40:57 21:44:28 47° 25° (NNE) 21:47:59 2401.200-2431.200
GONETS M04 06 Mar 21:45:19 21:53:59 81° 94° (E) 22:02:41
DELFI C3 06 Mar 21:48:45 21:52:44 67° 259° (W) 21:56:45 145.870
SEEDS 06 Mar 21:50:16 21:52:47 15° 267° (W) 21:55:07 437.485
HUMSAT D 06 Mar 21:58:11 22:02:06 41° 75° (ENE) 22:06:02 437.325/437.525
JUGNU 06 Mar 22:02:32 22:03:16 10° 161° (SSE) 22:04:11 437.505
DX 1 06 Mar 22:05:28 22:09:51 77° 258° (WSW) 22:14:15 434.975-435.025
TIGRISAT 06 Mar 22:09:25 22:12:06 17° 94° (E) 22:15:00 435.000
CUBEBUG 2 06 Mar 22:11:07 22:15:22 39° 261° (W) 22:19:28 437.445
CUBEBUG 1 06 Mar 22:18:36 22:21:48 20° 72° (ENE) 22:25:09 437.445
CINEMA 3 06 Mar 22:22:17 22:25:29 17° 266° (W) 22:28:26 145.822/145.860
ANTELSAT 06 Mar 22:24:45 22:28:25 27° 97° (E) 22:32:13 437.575/2403.000
FUNcube-1 06 Mar 22:27:59 22:32:04 37° 262° (W) 22:36:02 145.935
UKube-1 06 Mar 22:29:29 22:33:35 39° 261° (W) 22:37:40 .
AISAT 06 Mar 22:29:38 22:34:07 76° 77° (ENE) 22:38:37 437.250
ZACube-1 06 Mar 22:31:03 22:35:03 34° 262° (W) 22:38:56 437.345
BUGSAT 1 06 Mar 22:35:15 22:36:14 11° 92° (E) 22:37:31 437.445
VELOX 1 06 Mar 22:36:55 22:41:25 90° 73° (ENE) 22:45:56 145.980
50 SAT 06 Mar 22:42:09 22:46:08 76° 259° (WSW) 22:50:05 437.505
VERMONT LUNAR 06 Mar 22:43:13 22:45:49 19° 219° (SW) 22:48:21 437.305
QB50P1 06 Mar 22:46:45 22:50:09 24° 96° (E) 22:53:38 145.935-145.965
QB50P2 06 Mar 22:52:02 22:55:42 29° 97° (E) 22:59:24 145.880/145.840
DUCHIFAT 1 06 Mar 23:02:47 23:06:42 38° 98° (E) 23:10:37 145.980
UWE-3 06 Mar 23:03:07 23:04:57 12° 268° (W) 23:06:29 435.000/436.395/437.385
ESTCUBE 1 06 Mar 23:09:50 23:14:21 84° 259° (W) 23:18:54 437.505/2401.250
SO-50 06 Mar 23:19:22 23:21:35 14° 109° (ESE) 23:24:04 436.795
PHONESAT 2.4 06 Mar 23:19:48 23:22:47 24° 218° (SW) 23:25:42 2401.200-2431.200
UNISAT 6 06 Mar 23:21:55 23:26:11 56° 284° (WNW) 23:30:30 437.425
POPSAT HIP 1 06 Mar 23:26:23 23:30:36 83° 102° (ESE) 23:34:48 437.405
POLYITAN 1 06 Mar 23:28:14 23:32:28 89° 116° (ESE) 23:36:40 437.675
DANDE 06 Mar 23:31:19 23:38:08 59° 97° (E) 23:43:18 436.750
CUSAT 1 06 Mar 23:34:18 23:40:45 79° 96° (E) 23:45:33 437.405
HUMSAT D 06 Mar 23:36:54 23:38:07 11° 268° (W) 23:39:02 437.325/437.525
RS-15 06 Mar 23:37:58 23:48:35 53° 304° (WNW) 23:59:13 29.354- 29.394
TIGRISAT 06 Mar 23:45:07 23:48:55 30° 286° (WNW) 23:52:43 435.000
GONETS M04 06 Mar 23:46:51 23:51:57 16° 293° (WNW) 23:56:24
JUGNU 06 Mar 23:47:21 23:51:46 22° 168° (SSE) 23:56:15 437.505
NANOSAT C BR1 06 Mar 23:47:48 23:51:54 51° 285° (WNW) 23:55:58 145.865
CUBEBUG 1 06 Mar 23:54:17 23:58:03 26° 264° (W) 00:01:45 437.445
TISAT 1 06 Mar 23:54:45 23:58:57 58° 76° (ENE) 00:03:09 437.305
SRMSAT 06 Mar 23:59:26 00:02:03 13° 162° (SSE) 00:04:46 437.500
ANTELSAT 07 Mar 00:01:57 00:05:06 19° 288° (WNW) 00:08:08 437.575/2403.000
SPROUT 07 Mar 00:07:22 00:11:42 85° 257° (WSW) 00:16:03 437.525
SWISSCUBE 07 Mar 00:07:27 00:08:58 12° 68° (ENE) 00:10:47 437.505
BUGSAT 1 07 Mar 00:08:09 00:11:59 38° 286° (WNW) 00:15:44 437.445
BEESAT 07 Mar 00:14:38 00:16:42 13° 69° (ENE) 00:19:00 436.000
QB50P1 07 Mar 00:22:50 00:25:55 19° 288° (WNW) 00:28:51 145.935-145.965
QB50P2 07 Mar 00:28:41 00:31:25 16° 289° (WNW) 00:33:58 145.880/145.840
DUCHIFAT 1 07 Mar 00:40:21 00:42:15 12° 290° (WNW) 00:43:54 145.980
ITUPSAT 1 07 Mar 00:42:57 00:46:54 27° 72° (ENE) 00:50:59 437.325
SO-50 07 Mar 00:57:26 01:01:46 43° 301° (WNW) 01:06:15 436.795
DANDE 07 Mar 01:17:58 01:21:23 14° 283° (WNW) 01:24:02 436.750
Oscar 19 07 Mar 01:24:38 01:29:20 37° 98° (E) 01:34:06 437.125/150
BEESAT 3 07 Mar 01:30:04 01:33:58 41° 59° (ENE) 01:37:49 437.485
JUGNU 07 Mar 01:35:12 01:40:19 31° 177° (S) 01:45:29 437.505
ITAMSAT 1 07 Mar 01:35:33 01:37:45 13° 92° (E) 01:40:18 435.822/435.867
SWISSCUBE 07 Mar 01:41:45 01:46:26 55° 260° (W) 01:51:08 437.505
SRMSAT 07 Mar 01:45:56 01:50:43 25° 170° (S) 01:55:33 437.500
BEESAT 07 Mar 01:49:34 01:54:10 49° 260° (W) 01:58:48 436.000
YUBILEINY 07 Mar 01:55:33 02:01:05 19° 69° (ENE) 02:07:08 435.215
RS-15 07 Mar 02:00:14 02:04:32 12° 331° (NNW) 02:08:11 29.354- 29.394
BEESAT 2 07 Mar 02:00:46 02:04:54 86° 63° (ENE) 02:08:58 435.950
STARS 07 Mar 02:17:06 02:21:02 33° 74° (ENE) 02:25:01 437.465
ITUPSAT 1 07 Mar 02:21:00 02:24:47 23° 265° (W) 02:28:29 437.325
KKS-1 07 Mar 02:21:15 02:25:39 62° 76° (ENE) 02:30:05 437.445
AIST 2 07 Mar 02:24:44 02:28:53 52° 61° (ENE) 02:32:57 435.215
HORYU 2 07 Mar 02:49:23 02:50:48 12° 92° (E) 02:52:31 437.375
Oscar 19 07 Mar 03:04:48 03:08:28 19° 290° (WNW) 03:11:58 437.125/150
BEESAT 3 07 Mar 03:10:24 03:11:43 11° 251° (WSW) 03:12:45 437.485
Gurwin Techsat 1B 07 Mar 03:12:31 03:17:50 74° 284° (WNW) 03:23:08 435.225
ITAMSAT 1 07 Mar 03:12:34 03:17:38 53° 286° (WNW) 03:22:40 435.822/435.867
JAS-2 07 Mar 03:14:54 03:17:56 13° 88° (E) 03:21:40 435.910
AO-7 07 Mar 03:18:27 03:24:01 21° 94° (E) 03:30:02 29.400- 29.500
M-CUBED/EXP-1 PRIME 07 Mar 03:19:22 03:20:36 12° 66° (ENE) 03:22:00 437.505
JUGNU 07 Mar 03:23:55 03:28:55 28° 187° (S) 03:33:55 437.505
SRMSAT 07 Mar 03:34:13 03:39:28 32° 179° (S) 03:44:45 437.500
YUBILEINY 07 Mar 03:50:01 03:58:49 72° 267° (W) 04:07:32 435.215
STARS 07 Mar 03:54:47 03:57:36 16° 266° (W) 04:00:13 437.465
MOZHAYETS 4 07 Mar 04:07:18 04:11:28 37° 74° (ENE) 04:15:42
HORYU 2 07 Mar 04:23:28 04:27:44 44° 285° (WNW) 04:31:58 437.375
AUBIESAT-1 07 Mar 04:50:06 04:53:03 29° 258° (WSW) 04:56:04 437.475
M-CUBED/EXP-1 PRIME 07 Mar 04:52:38 04:55:22 23° 259° (W) 04:58:07 437.505
JAS-2 07 Mar 04:56:02 05:03:50 89° 102° (ESE) 05:11:41 435.910
AO-7 07 Mar 05:09:13 05:17:25 66° 289° (WNW) 05:25:33 29.400- 29.500
JUGNU 07 Mar 05:13:39 05:17:28 17° 196° (SSW) 05:21:12 437.505
SRMSAT 07 Mar 05:23:17 05:28:14 27° 189° (S) 05:33:10 437.500
PCSat 07 Mar 05:23:39 05:28:59 55° 63° (ENE) 05:34:17 145.827
ISS 07 Mar 05:37:15 05:38:40 13° 127° (SE) 05:40:13 145.825
Cubesat XI-IV 07 Mar 05:39:03 05:42:10 16° 93° (E) 05:45:33 437.490
CUTE-I 07 Mar 05:46:06 05:49:45 19° 94° (E) 05:53:36 437.470
MOZHAYETS 4 07 Mar 05:46:15 05:48:53 15° 268° (W) 05:51:17
CUBESAT XI-V 07 Mar 06:19:33 06:24:14 79° 76° (ENE) 06:28:58 437.345
RS-15 07 Mar 06:34:53 06:43:36 25° 44° (NE) 06:53:05 29.354- 29.394
PRISM 07 Mar 06:35:41 06:39:46 58° 259° (W) 06:43:53 437.425
JAS-2 07 Mar 06:43:42 06:48:06 16° 295° (WNW) 06:52:04 435.910
STRAND 1 07 Mar 06:46:01 06:51:10 89° 66° (ENE) 06:56:21 437.568
AIST 1 07 Mar 06:48:28 06:52:48 80° 96° (E) 06:57:12
